#timestamp,LO_Frequency,Hit,StdDev 
1556974815.5,286046999.3,N
1556974835.3,286046998.2,N
1556974855.2,286046998.8,N
1556974875.9,286046999.5,N
1556974895.7,286046996.6,N
1556974915.6,286046997.4,N
1556974935.4,286046997.9,N
1556974955.2,286046997.0,N
1556974975.1,286046999.1,N
1556974976.0,286046999.1,N
1556974995.8,286046997.4,N
1556975015.7,286046995.4,Y
1556975035.5,286046999.1,P
1556975055.3,286046997.2,P
1556975075.2,286046997.7,N
1556975095.0,286046997.9,N
1556975095.9,286046997.9,N
1556975115.8,286046997.9,N
1556975135.6,286046995.2,Y
1556975155.4,286046999.6,P
1556975175.3,286046999.0,N
1556975195.1,286047001.2,N
1556975215.9,286046998.7,N
1556975235.7,286046999.6,N
1556975255.5,286046998.8,N
1556975275.4,286046999.2,N
1556975295.2,286046998.3,N
1556975315.0,286047001.2,N
1556975315.9,286047001.2,N
1556975335.8,286046998.6,N
1556975355.6,286046998.5,N
1556975375.5,286046999.8,N
1556975395.3,286047000.8,N
1556975415.1,286047001.1,N
1556975435.9,286046998.1,N
1556975455.7,286047000.8,N
1556975475.5,286046998.4,N
1556975495.4,286047000.8,N
1556975515.2,286046999.8,N
1556975535.1,286047000.5,N
1556975536.0,286047000.5,N
1556975555.8,286047000.6,N
1556975575.6,286047000.7,N
1556975595.5,286047000.3,N
1556975615.3,286047000.8,N
1556975635.2,286047000.0,N
1556975655.9,286047000.5,N
1556975675.7,286046998.1,N
1556975695.6,286046998.9,N
1556975715.4,286046999.6,N
1556975735.2,286046999.4,N
1556975755.1,286046999.6,N
1556975756.0,286046999.6,N
1556975775.8,286046998.7,N
1556975795.7,286047000.5,N
1556975815.5,286047000.5,N
1556975835.3,286047001.1,N
1556975855.2,286046999.9,N
1556975875.0,286047000.8,N
1556975875.9,286047000.8,N
1556975895.8,286047000.9,N
1556975915.6,286047000.3,N
1556975935.4,286046998.7,N
1556975955.3,286047001.1,N
1556975975.1,286047001.1,N
1556975995.9,286046999.4,N
1556976015.7,286046996.5,Y
1556976035.5,286046996.5,P
1556976055.4,286046997.0,N
1556976075.2,286046997.0,N
1556976095.0,286046998.3,N
1556976095.9,286046998.3,N
1556976115.8,286047000.8,N
1556976135.6,286047001.2,N
1556976155.5,286046998.4,N
1556976175.3,286046999.6,N
1556976195.1,286047000.8,N
1556976215.9,286046999.0,N
1556976235.7,286046999.8,N
1556976255.6,286046999.7,N
1556976275.4,286047001.8,N
1556976295.2,286047002.3,N
1556976315.1,286047002.0,N
1556976316.0,286047002.0,N
1556976335.8,286047000.1,N
1556976355.6,286047000.1,N
1556976375.5,286046999.9,N
1556976395.3,286047000.9,N
1556976415.1,286046998.8,N
1556976435.9,286046998.1,N
1556976455.7,286046999.6,N
1556976475.6,286046996.8,N
1556976495.4,286046997.8,N
1556976515.2,286046995.1,N
1556976535.1,286046995.3,N
1556976536.0,286046995.3,N
1556976555.8,286046995.2,N
1556976575.6,286046994.0,N
1556976595.5,286046993.7,N
1556976615.3,286046996.2,N
1556976635.2,286046997.9,N
1556976655.9,286046999.6,N
1556976675.7,286046999.3,N
1556976695.6,286046998.2,N
1556976715.4,286047000.5,N
1556976735.2,286047000.2,N
1556976755.1,286047000.9,N
1556976756.0,286047000.9,N
1556976775.8,286046998.4,N
1556976795.7,286046999.2,N
1556976815.5,286046998.9,N
1556976835.3,286046997.1,N
1556976855.2,286046997.2,N
1556976875.0,286046994.9,N
1556976875.9,286046994.9,N
1556976895.8,286046996.5,N
1556976915.6,286046996.7,N
1556976935.4,286046996.7,N
1556976955.3,286046996.6,N
1556976975.1,286046997.1,N
1556976995.8,286046998.5,N
1556977015.7,286047000.5,N
1556977035.5,286047001.2,N
1556977055.3,286047000.7,N
1556977075.2,286046998.6,N
1556977095.0,286047000.5,N
1556977095.9,286047000.5,N
1556977115.8,286046999.2,N
1556977135.6,286046999.2,N
1556977155.4,286046996.9,N
1556977175.3,286046994.9,N
1556977195.1,286046996.1,N
1556977215.8,286046997.5,N
1556977235.7,286046997.6,N
1556977255.5,286046995.1,N
1556977305.4,286046995.6,E
1556977315.3,286046997.0,N
1556977335.2,286046999.9,P
1556977355.9,286047001.9,N
1556977375.7,286046999.8,N
1556977395.6,286046998.6,N
1556977415.4,286046998.1,N
1556977435.2,286046999.9,N
1556977455.1,286046998.7,N
1556977456.0,286046998.7,N
1556977475.8,286046998.8,N
1556977495.6,286046999.2,N
1556977515.5,286046998.5,N
1556977535.3,286046998.3,N
1556977555.2,286046998.3,N
1556977575.9,286046999.5,N
1556977595.7,286046999.4,N
1556977615.6,286046999.2,N
1556977635.4,286047001.0,N
1556977655.2,286047002.4,N
1556977675.1,286047002.8,N
1556977676.0,286047002.8,N
1556977695.8,286046999.8,N
1556977715.7,286047000.0,N
1556977735.5,286047000.0,N
1556977755.3,286046998.8,N
1556977775.2,286046998.9,N
1556977795.0,286046998.1,N
1556977795.9,286046998.1,N
1556977815.8,286047000.7,N
1556977835.6,286047001.0,N
1556977855.4,286046999.1,N
1556977875.3,286046999.4,N
1556977895.1,286046996.5,N
1556977915.9,286046999.5,N
1556977935.7,286046998.8,N
1556977955.5,286046999.4,N
1556977975.4,286046998.3,N
1556977995.2,286046998.6,N
1556978015.0,286047000.6,N
1556978015.9,286047000.6,N
1556978035.8,286047000.7,N
1556978055.6,286047001.2,N
1556978075.5,286046998.1,N
1556978095.3,286047000.3,N
1556978115.1,286046998.6,N
1556978135.9,286046999.5,N
1556978155.7,286046998.7,N
1556978175.5,286046998.3,N
1556978195.4,286046999.4,N
1556978215.2,286046996.8,N
1556978235.1,286046997.3,N
1556978236.0,286046997.3,N
1556978255.8,286046999.6,N
1556978275.6,286046996.8,N
1556978295.5,286046997.0,N
1556978315.3,286046997.9,N
1556978335.1,286046996.0,Y
1556978355.9,286046995.0,P
1556978375.7,286046996.1,N
1556978395.6,286046996.0,N
